Tracking 22124 objects as of 23-Jan-2021
HD Live streaming from Space Station
objects crossing your sky now

INSAT 2B

Track INSAT 2B now!
INSAT 2B is classified as:


NORAD ID: 22724
Int'l Code: 1993-048B
Perigee: 35,834.1 km
Apogee: 35,924.3 km
Inclination: 13.8 °
Period: 1,440.5 minutes
Semi major axis: 42250 km
RCS: 19.9526 m2 (large)
Launch date: July 22, 1993
Source: India (IND)
Launch site: FRENCH GUIANA (FRGUI)

Second of Spain's communications satellites; 15 multi-frequency transponders
aabbcc
Your satellite tracking list
Your tracking list is empty




NASA's NSSDC Master Catalog

Two Line Element Set (TLE):
1 22724U 93048B   21023.10945796  .00000080  00000-0  00000+0 0  9997
2 22724  13.7915  17.4481 0010674 174.7936 197.3023  0.99967766100886
Source of the keplerian elements: AFSPC